Flag for Canada

Past Weather in Selkirk, Manitoba, Canada — Yesterday and Last 2 Weeks

Now
67 °F

Mild.


Feels Like: 67 °F
Forecast: 59 / 48 °F
Wind: 7 mph from North

Location: Winnipeg The Forks Man
Current Time: Sep 22, 2020 at 11:39:49 pm
Latest Report: Sep 22, 2020 at 11:00 pm
Visibility: N/A
Pressure29.90 "Hg
Humidity: 46%
Dew Point: 46 °F
Location of SelkirkLocation

Past Weather in Selkirk — Graph

°F

Selkirk Temperature Yesterday

Maximum temperature yesterday: 72 °F (at 5:00 pm)
Minimum temperature yesterday: 63 °F (at 11:00 pm)
Average temperature yesterday: 66 °F

High & Low Weather Summary for the Past Weeks

 TemperatureHumidityPressure
High86 °F (Sep 22, 5:00 pm)90% (Sep 12, 7:00 am)30.44 "Hg (Sep 12, 7:00 am)
Low35 °F (Sep 18, 7:00 am)23% (Sep 22, 5:00 pm)29.63 "Hg (Sep 21, 4:00 am)
Average55 °F59%30.11 "Hg
* Reported Sep 7 10:00 pm — Sep 22 10:00 pm, Selkirk. Weather by CustomWeather, © 2020

Note: Actual official high and low records may vary slightly from our data, if they occured in-between our weather recording intervals... More about our weather records

Selkirk Weather History for the Previous 24 Hours

Scroll right to see more
 ConditionsComfort  
Time TempWeatherWind HumidityBarometerVisibility
10:00 pm
Tue, Sep 22
71 °FMild.3 mph38%29.88 "HgN/A
9:00 pm74 °FMild.3 mph35%29.86 "HgN/A
8:00 pm79 °FPleasantly warm.2 mph26%29.84 "HgN/A
7:00 pm80 °FPleasantly warm.3 mph28%29.82 "HgN/A
6:00 pm84 °FPleasantly warm.6 mph24%29.82 "HgN/A
5:00 pm86 °FPleasantly warm.7 mph23%29.82 "HgN/A
4:00 pm82 °FPleasantly warm.5 mph28%29.84 "HgN/A
3:00 pm82 °FPleasantly warm.6 mph25%29.88 "HgN/A
2:00 pm80 °FPleasantly warm.5 mph28%29.91 "HgN/A
1:00 pm77 °FMild.6 mph31%29.95 "HgN/A
12:00 pm71 °FMild.3 mph38%29.98 "HgN/A
11:00 am65 °FMild.2 mph51%30.01 "HgN/A
10:00 am58 °FCool.No wind64%30.02 "HgN/A
9:00 am49 °FCool.No wind78%30.03 "HgN/A
8:00 am49 °FCool.3 mph77%30.04 "HgN/A
7:00 am48 °FCool.No wind79%30.03 "HgN/A
6:00 am50 °FCool.2 mph76%30.03 "HgN/A
5:00 am51 °FCool.1 mph71%30.01 "HgN/A
4:00 am54 °FCool.2 mph67%29.99 "HgN/A
3:00 am56 °FCool.2 mph62%30.00 "HgN/A
2:00 am58 °FRefreshingly cool.3 mph56%29.99 "HgN/A
1:00 am59 °FRefreshingly cool.2 mph56%29.98 "HgN/A
12:00 am62 °FMild.3 mph52%29.97 "HgN/A
11:00 pm
Mon, Sep 21
63 °FMild.2 mph58%29.96 "HgN/A
Weather by CustomWeather, © 2020

See weather overview